Hyannis, MA

1:23 AM EST on February 26, 2017 (GMT -0500)
Barnstable Municipal-Boardman-Polando Field

Weather History for KHYA - January, 2014

Change the Weather History Date:

Tuesday, January 28, 2014

  Actual Average Record
Temperature  
Mean Temperature 20 °F -  
Max Temperature 24 °F 38 °F 60 °F (1974)
Min Temperature 15 °F 22 °F -2 °F (1935)
Degree Days  
Heating Degree Days 46    
Moisture  
Dew Point -5 °F    
Average Humidity 34    
Maximum Humidity 42    
Minimum Humidity 25    
Precipitation  
Precipitation 0.00 in - - ()
Sea Level Pressure  
Sea Level Pressure 30.21 in    
Wind  
Wind Speed 9 mph (WNW)    
Max Wind Speed 14 mph    
Max Gust Speed 24 mph    
Visibility 10 miles    
Events      
Averages and records for this station are not official NWS values.
T = Trace of Precipitation, MM = Missing Value Source: NWS Daily Summary

Daily Weather History Graph

Daily Weather History Graph

Search for Another Location

Airport or City:

Trip Planner

Search our weather history database for the weather conditions in past years. The results will help you decide how hot, cold, wet, or windy it might be!

Date:

Astronomy

Jan. 28, 2014 Rise Set
Actual Time 6:56 AM EST 4:51 PM EST
Civil Twilight 6:27 AM EST 5:21 PM EST
Nautical Twilight 5:53 AM EST 5:54 PM EST
Astronomical Twilight 5:21 AM EST 6:27 PM EST
Moon 4:36 AM EST (1/28) 2:37 PM EST (1/28)
Length of Visible Light 10h 54m
Length of Day
9h 54m
Waning Crescent, 7% of the Moon is Illuminated
Jan 28
Waning Crescent
Jan 30
New
Feb 6
First Quarter
Feb 14
Full
Feb 22
Last Quarter

Hourly Weather History & Observations

Time (EST) Temp. Windchill Dew Point Humidity Pressure Visibility Wind Dir Wind Speed Gust Speed Precip Events Conditions
12:56 AM 24.1 °F 13.7 °F 1.9 °F 38% 29.98 in 10.0 mi WNW 10.4 mph - N/A   Overcast
1:56 AM 23.0 °F 13.1 °F 1.9 °F 40% 30.00 in 10.0 mi WNW 9.2 mph - N/A   Overcast
2:56 AM 21.9 °F 11.7 °F -0.0 °F 38% 30.03 in 10.0 mi NW 9.2 mph - N/A   Overcast
3:56 AM 19.9 °F 9.3 °F -0.0 °F 42% 30.06 in 10.0 mi WNW 9.2 mph 17.3 mph N/A   Partly Cloudy
4:56 AM 19.0 °F 8.2 °F -2.0 °F 40% 30.10 in 10.0 mi WNW 9.2 mph - N/A   Clear
5:56 AM 17.1 °F 3.0 °F -7.1 °F 34% 30.14 in 10.0 mi NW 13.8 mph 24.2 mph N/A   Clear
6:56 AM 16.0 °F 4.4 °F -6.0 °F 38% 30.19 in 10.0 mi West 9.2 mph - N/A   Clear
7:56 AM 15.1 °F 2.5 °F -7.1 °F 37% 30.23 in 10.0 mi WNW 10.4 mph - N/A   Clear
8:56 AM 17.1 °F 3.0 °F -9.9 °F 30% 30.26 in 10.0 mi WNW 13.8 mph 21.9 mph N/A   Clear
9:56 AM 19.0 °F 5.6 °F -11.0 °F 26% 30.27 in 10.0 mi NW 13.8 mph 20.7 mph N/A   Clear
10:56 AM 19.9 °F 7.9 °F -9.9 °F 26% 30.28 in 10.0 mi NNW 11.5 mph - N/A   Clear
11:56 AM 19.9 °F 7.9 °F -11.0 °F 25% 30.26 in 10.0 mi NNW 11.5 mph 19.6 mph N/A   Clear
12:56 PM 21.0 °F 9.3 °F -9.9 °F 25% 30.24 in 10.0 mi NNW 11.5 mph 18.4 mph N/A   Clear
1:56 PM 19.9 °F 11.1 °F -9.9 °F 26% 30.25 in 10.0 mi North 6.9 mph - N/A   Clear
2:56 PM 19.9 °F 14.9 °F -8.0 °F 29% 30.25 in 10.0 mi North 3.5 mph - N/A   Clear
3:56 PM 19.9 °F 14.9 °F -7.1 °F 30% 30.28 in 10.0 mi South 3.5 mph - N/A   Clear
4:56 PM 19.9 °F 14.9 °F -6.0 °F 32% 30.28 in 10.0 mi SE 3.5 mph - N/A   Clear
5:56 PM 19.9 °F 12.1 °F -7.1 °F 30% 30.30 in 10.0 mi WSW 5.8 mph - N/A   Scattered Clouds
6:56 PM 19.9 °F 12.1 °F -5.1 °F 33% 30.29 in 10.0 mi West 5.8 mph - N/A   Partly Cloudy
7:56 PM 19.9 °F 14.9 °F -2.9 °F 37% 30.28 in 10.0 mi West 3.5 mph - N/A   Scattered Clouds
8:56 PM 19.9 °F - -5.1 °F 33% 30.27 in 10.0 mi Calm Calm - N/A   Overcast
9:56 PM 19.9 °F - -2.9 °F 37% 30.26 in 10.0 mi Calm Calm - N/A   Mostly Cloudy
10:56 PM 19.9 °F - -0.9 °F 40% 30.23 in 10.0 mi Calm Calm - N/A   Overcast
11:56 PM 19.9 °F - -0.0 °F 42% 30.19 in 10.0 mi Calm Calm - N/A   Overcast